�N����,����,�~����,�C��,���x,�C��,����,���ϕ���,�ő�u�ԕ���,�ő厞����,���˗�,�I�_���x,�n�����x,�ő啗���N��,DTYPE
"19/10/10","00:10",0.0,13.6,80.3,1012.6,330.7,2.6,4.5,337.8,0.00,10.3,19.1,"00:08:52",1
"19/10/10","00:20",0.0,13.7,80.0,1012.6,325.7,2.6,5.6,327.4,0.00,10.4,19.2,"00:19:44",1
"19/10/10","00:30",0.0,13.7,80.0,1012.6,328.9,2.3,4.5,349.7,0.00,10.4,19.0,"00:23:20",1
"19/10/10","00:40",0.0,13.8,80.1,1012.3,331.9,2.3,4.5,333.8,0.00,10.5,18.9,"00:34:40",1
"19/10/10","00:50",0.0,13.5,80.0,1012.6,325.8,1.6,3.6,324.6,0.00,10.2,19.0,"00:43:28",1
"19/10/10","01:00",0.0,13.4,81.3,1012.1,329.0,1.3,2.1,337.8,0.00,10.3,19.0,"00:52:08",1
"19/10/10","01:10",0.0,13.6,81.5,1012.1,330.6,1.7,2.9,345.9,0.00,10.5,18.9,"01:04:32",1
"19/10/10","01:20",0.0,13.6,81.1,1012.6,327.4,2.0,3.3,322.7,0.00,10.5,18.9,"01:14:48",1
"19/10/10","01:30",0.0,13.6,81.4,1012.1,326.2,2.0,3.3,337.5,0.00,10.5,18.8,"01:20:48",1
"19/10/10","01:40",0.0,13.7,81.3,1011.9,320.8,2.0,3.3,329.7,0.00,10.6,19.1,"01:30:56",1
"19/10/10","01:50",0.0,13.4,81.4,1011.9,304.6,1.5,3.2,303.7,0.00,10.3,18.8,"01:40:16",1
"19/10/10","02:00",0.0,13.2,82.2,1011.6,290.5,1.1,1.9,311.9,0.00,10.3,18.7,"01:55:46",1
"19/10/10","02:10",0.0,13.0,82.9,1012.1,280.5,1.3,1.8,289.4,0.00,10.2,18.8,"02:03:02",1
"19/10/10","02:20",0.0,12.9,83.6,1011.9,287.1,1.6,2.0,270.0,0.00,10.2,18.7,"02:16:14",1
"19/10/10","02:30",0.0,13.1,84.1,1011.9,282.5,1.3,2.4,264.8,0.00,10.5,18.7,"02:26:22",1
"19/10/10","02:40",0.0,13.1,84.0,1012.3,294.7,1.5,2.6,324.1,0.00,10.5,18.6,"02:35:48",1
"19/10/10","02:50",0.0,13.3,84.2,1012.1,301.4,2.0,3.2,316.5,0.00,10.7,18.7,"02:44:28",1
"19/10/10","03:00",0.0,13.6,84.2,1011.9,301.0,1.6,2.5,324.1,0.00,11.0,18.7,"02:52:00",1
"19/10/10","03:10",0.0,13.8,83.8,1011.6,297.4,1.3,2.5,325.1,0.00,11.2,18.7,"03:03:12",1
"19/10/10","03:20",0.0,13.9,83.0,1011.9,309.1,2.0,3.6,318.4,0.00,11.1,18.8,"03:17:04",1
"19/10/10","03:30",0.0,14.0,81.7,1011.9,299.7,1.3,2.8,319.1,0.00,11.0,18.8,"03:21:20",1
"19/10/10","03:40",0.0,13.7,81.8,1011.6,288.5,1.3,2.2,317.9,0.00,10.7,18.8,"03:32:40",1
"19/10/10","03:50",0.0,13.4,82.3,1011.4,292.4,1.2,1.8,322.2,0.00,10.5,18.7,"03:49:40",1
"19/10/10","04:00",0.0,13.1,83.0,1011.6,299.4,1.3,2.5,318.4,0.00,10.3,18.7,"03:50:40",1
"19/10/10","04:10",0.0,12.9,84.3,1011.2,286.5,1.5,1.9,272.4,0.00,10.4,18.7,"04:03:54",1
"19/10/10","04:20",0.0,12.9,85.1,1011.2,301.9,1.8,3.4,327.8,0.00,10.5,18.5,"04:19:20",1
"19/10/10","04:30",0.0,12.7,85.2,1011.4,311.0,2.0,2.5,310.6,0.00,10.3,18.4,"04:21:32",1
"19/10/10","04:40",0.0,12.3,86.8,1011.2,307.2,1.8,2.2,305.8,0.00,10.2,18.5,"04:34:42",1
"19/10/10","04:50",0.0,12.4,87.9,1011.4,295.9,1.6,2.5,320.4,0.00,10.5,18.4,"04:44:52",1
"19/10/10","05:00",0.0,12.7,88.0,1011.2,301.3,1.8,2.7,315.0,0.00,10.8,18.6,"04:59:12",1
"19/10/10","05:10",0.0,12.9,88.2,1011.4,292.8,1.8,3.5,317.2,0.00,11.0,18.3,"05:09:26",1
"19/10/10","05:20",0.0,13.0,87.8,1011.2,293.6,1.5,2.1,283.7,0.00,11.1,18.4,"05:11:24",1
"19/10/10","05:30",0.0,12.9,88.7,1011.4,299.3,1.7,2.7,318.9,0.00,11.1,18.4,"05:26:14",1
"19/10/10","05:40",0.0,13.1,88.6,1011.2,305.5,1.2,2.2,330.0,0.00,11.3,18.4,"05:30:30",1
"19/10/10","05:50",0.0,12.9,88.5,1011.4,320.6,1.0,2.5,315.8,0.00,11.1,18.3,"05:46:36",1
"19/10/10","06:00",0.0,12.6,89.0,1011.4,308.9,1.6,2.1,302.7,0.00,10.9,18.2,"05:54:02",1
"19/10/10","06:10",0.0,12.4,89.7,1011.2,312.0,1.6,2.7,316.0,0.00,10.8,18.3,"06:02:38",1
"19/10/10","06:20",0.0,12.6,90.5,1011.2,307.6,1.7,2.4,309.9,0.00,11.1,18.3,"06:17:10",1
"19/10/10","06:30",0.0,12.7,90.4,1011.2,301.8,1.1,1.8,301.1,0.00,11.2,18.0,"06:26:14",1
"19/10/10","06:40",0.0,12.8,90.8,1010.7,292.0,1.5,2.0,313.8,0.00,11.4,18.3,"06:31:58",1
"19/10/10","06:50",0.0,12.8,90.5,1011.2,316.4,1.5,2.4,310.6,0.00,11.3,18.1,"06:43:58",1
"19/10/10","07:00",0.0,12.9,91.2,1011.6,322.9,0.8,1.9,322.8,0.00,11.5,18.2,"06:50:16",1
"19/10/10","07:10",0.0,13.1,91.1,1011.2,318.1,1.1,1.6,331.2,0.00,11.7,17.9,"07:01:04",1
"19/10/10","07:20",0.0,13.9,90.9,1011.6,316.2,0.8,1.3,323.1,0.01,12.5,18.2,"07:10:02",1
"19/10/10","07:30",0.0,14.2,90.7,1011.9,321.1,0.8,1.7,327.6,0.02,12.7,18.1,"07:20:08",1
"19/10/10","07:40",0.0,15.1,89.5,1012.1,311.0,0.6,1.2,331.0,0.03,13.4,18.2,"07:35:04",1
"19/10/10","07:50",0.2,15.6,86.7,1011.9,273.3,0.8,2.0,252.7,0.05,13.4,18.3,"07:41:20",1
"19/10/10","08:00",0.0,16.1,83.7,1012.3,255.1,1.1,2.4,238.5,0.07,13.4,18.3,"07:53:28",1
"19/10/10","08:10",0.0,17.1,82.4,1012.1,325.5,0.7,1.4,351.2,0.09,14.1,18.5,"08:08:02",1
"19/10/10","08:20",0.0,17.2,80.8,1012.1,351.4,0.6,1.2,339.4,0.11,13.9,18.5,"08:11:44",1
"19/10/10","08:30",0.0,17.9,80.1,1012.6,294.4,0.3,1.1,314.0,0.14,14.5,18.9,"08:24:08",1
"19/10/10","08:40",0.0,18.5,77.6,1012.3,355.2,0.5,1.2,352.6,0.16,14.6,18.9,"08:30:24",1
"19/10/10","08:50",0.0,19.0,74.9,1012.1,304.9,0.6,1.7,328.5,0.19,14.5,19.1,"08:40:02",1
"19/10/10","09:00",0.0,19.7,73.4,1012.3,312.3,0.5,1.1,295.2,0.21,14.9,19.2,"08:50:48",1
"19/10/10","09:10",0.0,20.0,72.6,1012.3,78.5,0.3,0.9,123.8,0.24,15.0,19.2,"09:04:32",1
"19/10/10","09:20",0.0,20.7,69.3,1011.9,19.1,0.6,1.3,44.6,0.26,14.9,19.7,"09:11:20",1
"19/10/10","09:30",0.0,21.2,67.8,1011.9,0.4,0.7,1.4,351.8,0.29,15.1,19.7,"09:26:56",1
"19/10/10","09:40",0.0,22.1,64.9,1011.9,276.8,0.5,1.8,213.8,0.31,15.2,20.2,"09:39:36",1
"19/10/10","09:50",0.0,22.4,61.2,1011.6,200.9,0.8,3.6,226.2,0.33,14.6,20.3,"09:49:44",1
"19/10/10","10:00",0.0,22.7,60.3,1011.4,177.7,1.1,2.6,232.4,0.35,14.7,20.6,"09:50:40",1
"19/10/10","10:10",0.0,23.1,59.4,1011.2,181.4,1.0,2.7,117.5,0.37,14.8,20.7,"10:09:56",1
"19/10/10","10:20",0.0,23.1,59.0,1010.9,152.7,1.0,3.2,127.3,0.39,14.7,21.2,"10:12:08",1
"19/10/10","10:30",0.0,23.7,56.4,1010.7,82.2,1.1,1.9,47.5,0.40,14.6,21.3,"10:26:00",1
"19/10/10","10:40",0.0,24.2,56.9,1010.2,357.9,0.7,2.4,37.7,0.42,15.2,21.6,"10:30:16",1
"19/10/10","10:50",0.0,24.2,56.1,1010.0,2.0,0.8,2.6,339.0,0.43,14.9,22.0,"10:44:08",1
"19/10/10","11:00",0.0,24.4,54.7,1009.7,10.6,1.3,2.9,349.3,0.45,14.7,22.0,"10:54:00",1
"19/10/10","11:10",0.0,24.6,55.0,1009.7,40.9,1.0,2.1,338.1,0.46,15.0,22.3,"11:02:08",1
"19/10/10","11:20",0.0,24.7,55.3,1009.0,181.0,0.8,2.7,113.2,0.46,15.2,22.6,"11:13:28",1
"19/10/10","11:30",0.0,25.7,56.2,1009.0,143.5,1.1,2.9,123.6,0.48,16.4,22.9,"11:28:56",1
"19/10/10","11:40",0.0,25.7,56.0,1008.8,133.4,1.5,3.1,104.0,0.48,16.3,23.2,"11:32:16",1
"19/10/10","11:50",0.0,25.6,56.3,1008.8,140.6,1.2,2.7,129.0,0.48,16.3,23.3,"11:47:12",1
"19/10/10","12:00",0.0,25.8,56.1,1009.0,168.0,1.7,3.7,222.6,0.49,16.4,23.4,"11:56:56",1
"19/10/10","12:10",0.0,26.3,55.8,1008.1,135.5,1.7,3.4,220.1,0.49,16.8,23.7,"12:01:28",1
"19/10/10","12:20",0.0,26.4,55.8,1008.1,106.3,1.6,3.5,143.5,0.47,16.9,23.9,"12:14:48",1
"19/10/10","12:30",0.0,27.0,55.1,1008.1,119.2,1.3,2.5,124.8,0.51,17.3,24.1,"12:28:56",1
"19/10/10","12:40",0.0,26.8,57.9,1008.1,128.0,1.5,4.3,86.0,0.49,17.9,24.2,"12:32:48",1
"19/10/10","12:50",0.0,26.2,57.2,1007.8,156.5,1.2,3.4,128.5,0.32,17.1,24.3,"12:44:32",1
"19/10/10","13:00",0.0,25.9,57.3,1007.6,115.7,1.3,2.6,105.7,0.14,16.9,24.4,"12:52:40",1
"19/10/10","13:10",0.0,25.7,58.7,1007.1,77.2,1.0,2.5,54.9,0.13,17.1,24.5,"13:06:16",1
"19/10/10","13:20",0.0,26.0,58.3,1007.1,82.5,1.3,4.4,91.7,0.12,17.2,24.5,"13:11:28",1
"19/10/10","13:30",0.0,25.9,57.9,1007.6,97.5,1.2,3.4,107.4,0.08,17.0,24.3,"13:26:32",1
"19/10/10","13:40",0.0,25.7,59.6,1007.4,109.3,1.0,2.2,19.6,0.09,17.3,24.3,"13:33:12",1
"19/10/10","13:50",0.0,25.7,58.9,1007.1,90.6,1.3,3.5,107.2,0.07,17.1,24.2,"13:41:36",1
"19/10/10","14:00",0.0,25.7,59.4,1007.4,121.7,1.1,2.7,170.2,0.09,17.2,24.0,"13:52:32",1
"19/10/10","14:10",0.0,25.5,60.9,1007.4,135.7,0.7,2.1,126.7,0.07,17.4,23.9,"14:00:48",1
"19/10/10","14:20",0.0,25.6,60.8,1007.4,115.0,0.7,1.8,165.8,0.08,17.5,23.8,"14:11:52",1
"19/10/10","14:30",0.0,25.7,60.1,1006.9,101.6,0.7,1.9,113.3,0.07,17.4,23.7,"14:22:08",1
"19/10/10","14:40",0.0,25.5,60.9,1007.1,145.2,0.8,2.7,150.4,0.06,17.4,23.7,"14:36:32",1
"19/10/10","14:50",0.0,25.4,62.2,1006.9,125.4,0.7,2.1,93.9,0.04,17.7,23.4,"14:41:12",1
"19/10/10","15:00",0.0,25.1,62.6,1007.1,163.7,0.8,1.8,195.1,0.04,17.5,23.5,"14:55:52",1
"19/10/10","15:10",0.0,25.1,62.7,1007.1,141.3,0.7,1.8,128.3,0.03,17.5,23.6,"15:06:24",1
"19/10/10","15:20",0.0,25.2,63.1,1007.1,182.3,1.1,3.2,212.2,0.02,17.7,23.5,"15:15:12",1
"19/10/10","15:30",0.0,25.1,63.9,1006.9,189.9,1.0,3.1,134.9,0.02,17.8,23.6,"15:26:32",1
"19/10/10","15:40",0.0,25.0,63.4,1007.6,169.4,1.0,3.5,225.3,0.01,17.6,23.4,"15:38:24",1
"19/10/10","15:50",0.0,25.1,63.2,1007.4,172.6,1.0,2.1,188.9,0.03,17.7,23.2,"15:47:36",1
"19/10/10","16:00",0.0,25.1,64.2,1007.4,156.1,1.1,2.8,153.1,0.03,17.9,23.2,"15:53:36",1
"19/10/10","16:10",0.0,24.9,64.9,1007.6,149.4,1.3,2.7,110.2,0.02,17.9,23.3,"16:07:52",1
"19/10/10","16:20",0.0,25.0,65.4,1007.6,167.8,1.0,2.6,183.6,0.03,18.1,23.4,"16:10:08",1
"19/10/10","16:30",0.0,25.1,64.8,1007.6,101.4,1.0,2.2,93.9,0.05,18.1,23.0,"16:23:12",1
"19/10/10","16:40",0.0,24.9,64.6,1007.6,89.7,1.2,3.2,111.8,0.02,17.8,23.1,"16:31:44",1
"19/10/10","16:50",0.0,24.6,65.2,1007.6,119.2,0.7,2.0,142.1,0.00,17.7,23.2,"16:42:56",1
"19/10/10","17:00",0.0,24.4,65.9,1007.8,136.0,0.8,2.1,87.8,0.00,17.7,22.9,"16:55:44",1
"19/10/10","17:10",0.0,24.4,66.8,1007.1,139.9,0.5,1.4,153.4,0.01,17.9,22.8,"17:09:12",1
"19/10/10","17:20",0.0,24.4,66.7,1008.1,116.4,0.8,1.8,87.7,0.01,17.8,23.0,"17:16:24",1
"19/10/10","17:30",0.0,24.3,66.6,1007.6,122.1,0.7,2.0,125.4,0.00,17.7,22.8,"17:26:48",1
"19/10/10","17:40",0.0,24.2,67.0,1007.8,166.5,0.5,1.3,111.6,0.00,17.7,22.8,"17:30:08",1
"19/10/10","17:50",0.0,24.1,67.8,1007.6,28.4,0.5,1.4,312.9,0.00,17.8,22.7,"17:47:28",1
"19/10/10","18:00",0.0,23.9,68.6,1007.6,326.9,1.1,1.6,336.6,0.00,17.8,22.8,"17:56:00",1
"19/10/10","18:10",0.0,23.4,69.9,1008.1,291.1,0.8,1.3,346.1,0.00,17.6,22.6,"18:00:08",1
"19/10/10","18:20",0.0,23.2,71.7,1008.3,304.0,1.1,1.7,324.1,0.00,17.8,22.7,"18:16:16",1
"19/10/10","18:30",0.0,23.0,73.5,1007.8,306.8,1.1,1.8,303.8,0.00,18.1,22.6,"18:22:00",1
"19/10/10","18:40",0.0,22.8,74.7,1008.3,327.2,1.2,1.7,318.7,0.00,18.1,22.7,"18:32:16",1
"19/10/10","18:50",0.0,22.5,76.6,1008.1,295.3,0.6,1.4,323.0,0.00,18.2,22.5,"18:40:02",1
"19/10/10","19:00",0.0,22.5,77.6,1008.1,324.2,1.3,1.7,329.8,0.00,18.4,22.4,"18:56:56",1
"19/10/10","19:10",0.0,22.2,78.9,1008.6,322.7,1.3,1.7,324.9,0.00,18.4,22.5,"19:01:20",1
"19/10/10","19:20",0.0,22.0,79.7,1008.3,302.0,0.3,1.0,312.2,0.00,18.4,22.4,"19:10:24",1
"19/10/10","19:30",0.0,21.7,81.1,1008.1,305.8,0.8,1.4,316.0,0.00,18.4,22.4,"19:22:40",1
"19/10/10","19:40",0.0,21.5,81.9,1008.6,305.8,0.8,1.2,319.6,0.00,18.3,22.3,"19:38:24",1
"19/10/10","19:50",0.0,21.5,81.9,1008.3,297.3,1.0,1.3,324.5,0.00,18.3,22.2,"19:41:28",1
"19/10/10","20:00",0.0,21.6,81.4,1008.3,288.5,1.1,1.3,295.1,0.00,18.3,22.2,"19:52:48",1
"19/10/10","20:10",0.0,21.7,80.9,1008.6,296.4,1.1,1.9,316.6,0.00,18.3,22.3,"20:02:24",1
"19/10/10","20:20",0.0,21.7,80.6,1008.1,291.7,1.2,1.9,323.8,0.00,18.3,22.2,"20:18:48",1
"19/10/10","20:30",0.0,21.6,80.7,1008.6,299.7,1.2,1.7,317.1,0.00,18.2,22.2,"20:20:56",1
"19/10/10","20:40",0.0,21.5,80.5,1008.3,285.0,1.0,1.3,261.4,0.00,18.0,22.0,"20:36:24",1
"19/10/10","20:50",0.0,21.4,80.8,1008.3,300.5,0.8,1.6,310.2,0.00,18.0,22.0,"20:42:48",1
"19/10/10","21:00",0.0,21.2,81.3,1008.3,324.4,0.6,1.2,305.5,0.00,17.9,22.0,"20:51:52",1
"19/10/10","21:10",0.0,20.8,82.5,1008.6,319.2,0.8,1.2,317.2,0.00,17.8,22.0,"21:00:56",1
"19/10/10","21:20",0.0,20.5,84.1,1008.6,330.3,1.2,1.6,329.8,0.00,17.8,21.9,"21:16:48",1
"19/10/10","21:30",0.0,20.1,85.4,1008.6,318.1,0.7,1.2,338.5,0.00,17.6,21.8,"21:22:48",1
"19/10/10","21:40",0.0,19.9,86.4,1008.8,298.9,0.7,1.2,327.9,0.00,17.6,21.7,"21:39:28",1
"19/10/10","21:50",0.0,19.7,87.1,1008.8,314.6,0.8,1.4,331.0,0.00,17.5,21.8,"21:41:44",1
"19/10/10","22:00",0.0,19.5,88.0,1008.6,295.0,0.6,0.8,305.3,0.00,17.5,21.7,"21:56:00",1
"19/10/10","22:10",0.0,19.3,88.3,1008.1,310.2,0.6,0.9,307.8,0.00,17.4,21.7,"22:00:16",1
"19/10/10","22:20",0.0,19.2,89.1,1009.0,321.9,1.1,1.4,326.7,0.00,17.4,21.4,"22:14:32",1
"19/10/10","22:30",0.0,19.0,89.4,1008.8,310.2,0.7,1.1,326.5,0.00,17.3,21.5,"22:22:00",1
"19/10/10","22:40",0.0,19.0,89.8,1008.8,314.1,0.8,1.2,343.2,0.00,17.3,21.4,"22:38:00",1
"19/10/10","22:50",0.0,18.9,89.9,1008.8,317.9,1.0,1.2,330.7,0.00,17.2,21.3,"22:42:00",1
"19/10/10","23:00",0.0,18.9,90.6,1009.0,315.6,0.8,1.2,334.4,0.00,17.4,21.3,"22:55:52",1
"19/10/10","23:10",0.0,18.9,90.9,1008.8,291.2,0.8,1.1,305.1,0.00,17.4,21.1,"23:02:00",1
"19/10/10","23:20",0.0,19.2,90.4,1008.8,284.6,0.8,1.3,301.4,0.00,17.6,21.3,"23:17:12",1
"19/10/10","23:30",0.0,19.4,90.0,1008.8,310.4,1.0,1.6,314.2,0.00,17.8,21.4,"23:24:48",1
"19/10/10","23:40",0.0,19.5,89.6,1008.8,296.3,0.8,1.7,330.3,0.00,17.8,21.2,"23:39:28",1
"19/10/10","23:50",0.0,19.7,89.3,1008.6,323.1,1.1,3.1,336.0,0.00,17.9,21.3,"23:48:24",1
"19/10/10","24:00",0.0,19.9,88.7,1008.8,303.5,1.0,1.8,335.6,0.00,18.0,21.2,"23:50:24",1
